Index of /20260426/WXO-DD/model_rdps/10km/18/032
Name Last modified Size Description
Parent Directory -
20260426T18Z_MSC_RDPS_AbsoluteVorticity_IsbL-0250_RLatLon0.09_PT032H.grib2 2026-04-26 21:30 616K
20260426T18Z_MSC_RDPS_AbsoluteVorticity_IsbL-0500_RLatLon0.09_PT032H.grib2 2026-04-26 21:30 561K
20260426T18Z_MSC_RDPS_AbsoluteVorticity_IsbL-0700_RLatLon0.09_PT032H.grib2 2026-04-26 21:30 618K
20260426T18Z_MSC_RDPS_AbsoluteVorticity_IsbL-0850_RLatLon0.09_PT032H.grib2 2026-04-26 21:30 772K
20260426T18Z_MSC_RDPS_AirTemp_AGL-120m_RLatLon0.09_PT032H.grib2 2026-04-26 21:30 388K
20260426T18Z_MSC_RDPS_AirTemp_AGL-2m_RLatLon0.09_PT032H.grib2 2026-04-26 21:30 627K
20260426T18Z_MSC_RDPS_AirTemp_AGL-40m_RLatLon0.09_PT032H.grib2 2026-04-26 21:30 400K
20260426T18Z_MSC_RDPS_AirTemp_AGL-80m_RLatLon0.09_PT032H.grib2 2026-04-26 21:30 392K
20260426T18Z_MSC_RDPS_AirTemp_IsbL-0001_RLatLon0.09_PT032H.grib2 2026-04-26 21:30 256K
20260426T18Z_MSC_RDPS_AirTemp_IsbL-0005_RLatLon0.09_PT032H.grib2 2026-04-26 21:30 294K
20260426T18Z_MSC_RDPS_AirTemp_IsbL-0010_RLatLon0.09_PT032H.grib2 2026-04-26 21:30 307K
20260426T18Z_MSC_RDPS_AirTemp_IsbL-0020_RLatLon0.09_PT032H.grib2 2026-04-26 21:30 324K
20260426T18Z_MSC_RDPS_AirTemp_IsbL-0030_RLatLon0.09_PT032H.grib2 2026-04-26 21:30 339K
20260426T18Z_MSC_RDPS_AirTemp_IsbL-0050_RLatLon0.09_PT032H.grib2 2026-04-26 21:30 320K
20260426T18Z_MSC_RDPS_AirTemp_IsbL-0100_RLatLon0.09_PT032H.grib2 2026-04-26 21:30 432K
20260426T18Z_MSC_RDPS_AirTemp_IsbL-0150_RLatLon0.09_PT032H.grib2 2026-04-26 21:30 428K
20260426T18Z_MSC_RDPS_AirTemp_IsbL-0175_RLatLon0.09_PT032H.grib2 2026-04-26 21:30 420K
20260426T18Z_MSC_RDPS_AirTemp_IsbL-0200_RLatLon0.09_PT032H.grib2 2026-04-26 21:30 424K
20260426T18Z_MSC_RDPS_AirTemp_IsbL-0225_RLatLon0.09_PT032H.grib2 2026-04-26 21:30 423K
20260426T18Z_MSC_RDPS_AirTemp_IsbL-0250_RLatLon0.09_PT032H.grib2 2026-04-26 21:30 430K
20260426T18Z_MSC_RDPS_AirTemp_IsbL-0275_RLatLon0.09_PT032H.grib2 2026-04-26 21:30 410K
20260426T18Z_MSC_RDPS_AirTemp_IsbL-0300_RLatLon0.09_PT032H.grib2 2026-04-26 21:30 416K
20260426T18Z_MSC_RDPS_AirTemp_IsbL-0350_RLatLon0.09_PT032H.grib2 2026-04-26 21:30 427K
20260426T18Z_MSC_RDPS_AirTemp_IsbL-0400_RLatLon0.09_PT032H.grib2 2026-04-26 21:30 428K
20260426T18Z_MSC_RDPS_AirTemp_IsbL-0450_RLatLon0.09_PT032H.grib2 2026-04-26 21:30 435K
20260426T18Z_MSC_RDPS_AirTemp_IsbL-0500_RLatLon0.09_PT032H.grib2 2026-04-26 21:30 412K
20260426T18Z_MSC_RDPS_AirTemp_IsbL-0550_RLatLon0.09_PT032H.grib2 2026-04-26 21:30 429K
20260426T18Z_MSC_RDPS_AirTemp_IsbL-0600_RLatLon0.09_PT032H.grib2 2026-04-26 21:30 446K
20260426T18Z_MSC_RDPS_AirTemp_IsbL-0650_RLatLon0.09_PT032H.grib2 2026-04-26 21:30 458K
20260426T18Z_MSC_RDPS_AirTemp_IsbL-0700_RLatLon0.09_PT032H.grib2 2026-04-26 21:30 482K
20260426T18Z_MSC_RDPS_AirTemp_IsbL-0750_RLatLon0.09_PT032H.grib2 2026-04-26 21:30 410K
20260426T18Z_MSC_RDPS_AirTemp_IsbL-0800_RLatLon0.09_PT032H.grib2 2026-04-26 21:30 451K
20260426T18Z_MSC_RDPS_AirTemp_IsbL-0850_RLatLon0.09_PT032H.grib2 2026-04-26 21:30 492K
20260426T18Z_MSC_RDPS_AirTemp_IsbL-0875_RLatLon0.09_PT032H.grib2 2026-04-26 21:30 508K
20260426T18Z_MSC_RDPS_AirTemp_IsbL-0900_RLatLon0.09_PT032H.grib2 2026-04-26 21:30 526K
20260426T18Z_MSC_RDPS_AirTemp_IsbL-0925_RLatLon0.09_PT032H.grib2 2026-04-26 21:30 526K
20260426T18Z_MSC_RDPS_AirTemp_IsbL-0950_RLatLon0.09_PT032H.grib2 2026-04-26 21:30 528K
20260426T18Z_MSC_RDPS_AirTemp_IsbL-0970_RLatLon0.09_PT032H.grib2 2026-04-26 21:30 526K
20260426T18Z_MSC_RDPS_AirTemp_IsbL-0985_RLatLon0.09_PT032H.grib2 2026-04-26 21:30 517K
20260426T18Z_MSC_RDPS_AirTemp_IsbL-1000_RLatLon0.09_PT032H.grib2 2026-04-26 21:30 502K
20260426T18Z_MSC_RDPS_AirTemp_IsbL-1015_RLatLon0.09_PT032H.grib2 2026-04-26 21:30 501K
20260426T18Z_MSC_RDPS_Albedo_Sfc_RLatLon0.09_PT032H.grib2 2026-04-26 21:30 165K
20260426T18Z_MSC_RDPS_CAPE_Sfc_RLatLon0.09_PT032H.grib2 2026-04-26 21:30 1.7M
20260426T18Z_MSC_RDPS_CIN_Sfc_RLatLon0.09_PT032H.grib2 2026-04-26 21:30 1.2M
20260426T18Z_MSC_RDPS_CloudWater_EAtm_RLatLon0.09_PT032H.grib2 2026-04-26 21:30 220K
20260426T18Z_MSC_RDPS_ConvectivePrecip-Accum_Sfc_RLatLon0.09_PT032H.grib2 2026-04-26 21:30 951K
20260426T18Z_MSC_RDPS_DewPointDepression_AGL-2m_RLatLon0.09_PT032H.grib2 2026-04-26 21:30 401K
20260426T18Z_MSC_RDPS_DewPointDepression_IsbL-0001_RLatLon0.09_PT032H.grib2 2026-04-26 21:30 193
20260426T18Z_MSC_RDPS_DewPointDepression_IsbL-0005_RLatLon0.09_PT032H.grib2 2026-04-26 21:30 193
20260426T18Z_MSC_RDPS_DewPointDepression_IsbL-0010_RLatLon0.09_PT032H.grib2 2026-04-26 21:30 193
20260426T18Z_MSC_RDPS_DewPointDepression_IsbL-0020_RLatLon0.09_PT032H.grib2 2026-04-26 21:30 193
20260426T18Z_MSC_RDPS_DewPointDepression_IsbL-0030_RLatLon0.09_PT032H.grib2 2026-04-26 21:30 193
20260426T18Z_MSC_RDPS_DewPointDepression_IsbL-0050_RLatLon0.09_PT032H.grib2 2026-04-26 21:30 88K
20260426T18Z_MSC_RDPS_DewPointDepression_IsbL-0100_RLatLon0.09_PT032H.grib2 2026-04-26 21:30 129K
20260426T18Z_MSC_RDPS_DewPointDepression_IsbL-0150_RLatLon0.09_PT032H.grib2 2026-04-26 21:30 151K
20260426T18Z_MSC_RDPS_DewPointDepression_IsbL-0175_RLatLon0.09_PT032H.grib2 2026-04-26 21:30 186K
20260426T18Z_MSC_RDPS_DewPointDepression_IsbL-0200_RLatLon0.09_PT032H.grib2 2026-04-26 21:30 225K
20260426T18Z_MSC_RDPS_DewPointDepression_IsbL-0225_RLatLon0.09_PT032H.grib2 2026-04-26 21:30 266K
20260426T18Z_MSC_RDPS_DewPointDepression_IsbL-0250_RLatLon0.09_PT032H.grib2 2026-04-26 21:30 302K
20260426T18Z_MSC_RDPS_DewPointDepression_IsbL-0275_RLatLon0.09_PT032H.grib2 2026-04-26 21:30 310K
20260426T18Z_MSC_RDPS_DewPointDepression_IsbL-0300_RLatLon0.09_PT032H.grib2 2026-04-26 21:30 327K
20260426T18Z_MSC_RDPS_DewPointDepression_IsbL-0350_RLatLon0.09_PT032H.grib2 2026-04-26 21:30 332K
20260426T18Z_MSC_RDPS_DewPointDepression_IsbL-0400_RLatLon0.09_PT032H.grib2 2026-04-26 21:30 347K
20260426T18Z_MSC_RDPS_DewPointDepression_IsbL-0450_RLatLon0.09_PT032H.grib2 2026-04-26 21:30 360K
20260426T18Z_MSC_RDPS_DewPointDepression_IsbL-0500_RLatLon0.09_PT032H.grib2 2026-04-26 21:30 367K
20260426T18Z_MSC_RDPS_DewPointDepression_IsbL-0550_RLatLon0.09_PT032H.grib2 2026-04-26 21:30 377K
20260426T18Z_MSC_RDPS_DewPointDepression_IsbL-0600_RLatLon0.09_PT032H.grib2 2026-04-26 21:30 387K
20260426T18Z_MSC_RDPS_DewPointDepression_IsbL-0650_RLatLon0.09_PT032H.grib2 2026-04-26 21:30 392K
20260426T18Z_MSC_RDPS_DewPointDepression_IsbL-0700_RLatLon0.09_PT032H.grib2 2026-04-26 21:30 404K
20260426T18Z_MSC_RDPS_DewPointDepression_IsbL-0750_RLatLon0.09_PT032H.grib2 2026-04-26 21:30 428K
20260426T18Z_MSC_RDPS_DewPointDepression_IsbL-0800_RLatLon0.09_PT032H.grib2 2026-04-26 21:30 453K
20260426T18Z_MSC_RDPS_DewPointDepression_IsbL-0850_RLatLon0.09_PT032H.grib2 2026-04-26 21:30 474K
20260426T18Z_MSC_RDPS_DewPointDepression_IsbL-0875_RLatLon0.09_PT032H.grib2 2026-04-26 21:30 475K
20260426T18Z_MSC_RDPS_DewPointDepression_IsbL-0900_RLatLon0.09_PT032H.grib2 2026-04-26 21:30 466K
20260426T18Z_MSC_RDPS_DewPointDepression_IsbL-0925_RLatLon0.09_PT032H.grib2 2026-04-26 21:30 453K
20260426T18Z_MSC_RDPS_DewPointDepression_IsbL-0950_RLatLon0.09_PT032H.grib2 2026-04-26 21:30 442K
20260426T18Z_MSC_RDPS_DewPointDepression_IsbL-0970_RLatLon0.09_PT032H.grib2 2026-04-26 21:30 431K
20260426T18Z_MSC_RDPS_DewPointDepression_IsbL-0985_RLatLon0.09_PT032H.grib2 2026-04-26 21:30 425K
20260426T18Z_MSC_RDPS_DewPointDepression_IsbL-1000_RLatLon0.09_PT032H.grib2 2026-04-26 21:30 420K
20260426T18Z_MSC_RDPS_DewPointDepression_IsbL-1015_RLatLon0.09_PT032H.grib2 2026-04-26 21:30 412K
20260426T18Z_MSC_RDPS_DewPoint_AGL-2m_RLatLon0.09_PT032H.grib2 2026-04-26 21:30 306K
20260426T18Z_MSC_RDPS_DownwardLongwaveRadiationFlux-Accum_Sfc_RLatLon0.09_PT032H.grib2 2026-04-26 21:30 490K
20260426T18Z_MSC_RDPS_DownwardShortwaveRadiationFlux-Accum_NTAtm_RLatLon0.09_PT032H.grib2 2026-04-26 21:30 93K
20260426T18Z_MSC_RDPS_DownwardShortwaveRadiationFlux-Accum_Sfc_RLatLon0.09_PT032H.grib2 2026-04-26 21:30 563K
20260426T18Z_MSC_RDPS_FreezingRain-Accum1h_Sfc_RLatLon0.09_PT032H.grib2 2026-04-26 21:30 20K
20260426T18Z_MSC_RDPS_FreezingRain-Accum_Sfc_RLatLon0.09_PT032H.grib2 2026-04-26 21:30 112K
20260426T18Z_MSC_RDPS_GeopotentialHeight_IsbL-0001_RLatLon0.09_PT032H.grib2 2026-04-26 21:30 239K
20260426T18Z_MSC_RDPS_GeopotentialHeight_IsbL-0005_RLatLon0.09_PT032H.grib2 2026-04-26 21:30 339K
20260426T18Z_MSC_RDPS_GeopotentialHeight_IsbL-0010_RLatLon0.09_PT032H.grib2 2026-04-26 21:30 307K
20260426T18Z_MSC_RDPS_GeopotentialHeight_IsbL-0020_RLatLon0.09_PT032H.grib2 2026-04-26 21:30 307K
20260426T18Z_MSC_RDPS_GeopotentialHeight_IsbL-0030_RLatLon0.09_PT032H.grib2 2026-04-26 21:30 308K
20260426T18Z_MSC_RDPS_GeopotentialHeight_IsbL-0050_RLatLon0.09_PT032H.grib2 2026-04-26 21:30 343K
20260426T18Z_MSC_RDPS_GeopotentialHeight_IsbL-0100_RLatLon0.09_PT032H.grib2 2026-04-26 21:30 290K
20260426T18Z_MSC_RDPS_GeopotentialHeight_IsbL-0150_RLatLon0.09_PT032H.grib2 2026-04-26 21:30 231K
20260426T18Z_MSC_RDPS_GeopotentialHeight_IsbL-0175_RLatLon0.09_PT032H.grib2 2026-04-26 21:30 234K
20260426T18Z_MSC_RDPS_GeopotentialHeight_IsbL-0200_RLatLon0.09_PT032H.grib2 2026-04-26 21:30 267K
20260426T18Z_MSC_RDPS_GeopotentialHeight_IsbL-0225_RLatLon0.09_PT032H.grib2 2026-04-26 21:30 269K
20260426T18Z_MSC_RDPS_GeopotentialHeight_IsbL-0250_RLatLon0.09_PT032H.grib2 2026-04-26 21:30 271K
20260426T18Z_MSC_RDPS_GeopotentialHeight_IsbL-0275_RLatLon0.09_PT032H.grib2 2026-04-26 21:30 270K
20260426T18Z_MSC_RDPS_GeopotentialHeight_IsbL-0300_RLatLon0.09_PT032H.grib2 2026-04-26 21:30 269K
20260426T18Z_MSC_RDPS_GeopotentialHeight_IsbL-0350_RLatLon0.09_PT032H.grib2 2026-04-26 21:30 235K
20260426T18Z_MSC_RDPS_GeopotentialHeight_IsbL-0400_RLatLon0.09_PT032H.grib2 2026-04-26 21:30 230K
20260426T18Z_MSC_RDPS_GeopotentialHeight_IsbL-0450_RLatLon0.09_PT032H.grib2 2026-04-26 21:30 298K
20260426T18Z_MSC_RDPS_GeopotentialHeight_IsbL-0500_RLatLon0.09_PT032H.grib2 2026-04-26 21:30 293K
20260426T18Z_MSC_RDPS_GeopotentialHeight_IsbL-0550_RLatLon0.09_PT032H.grib2 2026-04-26 21:30 290K
20260426T18Z_MSC_RDPS_GeopotentialHeight_IsbL-0600_RLatLon0.09_PT032H.grib2 2026-04-26 21:30 287K
20260426T18Z_MSC_RDPS_GeopotentialHeight_IsbL-0650_RLatLon0.09_PT032H.grib2 2026-04-26 21:30 285K
20260426T18Z_MSC_RDPS_GeopotentialHeight_IsbL-0700_RLatLon0.09_PT032H.grib2 2026-04-26 21:30 254K
20260426T18Z_MSC_RDPS_GeopotentialHeight_IsbL-0750_RLatLon0.09_PT032H.grib2 2026-04-26 21:30 255K
20260426T18Z_MSC_RDPS_GeopotentialHeight_IsbL-0800_RLatLon0.09_PT032H.grib2 2026-04-26 21:30 259K
20260426T18Z_MSC_RDPS_GeopotentialHeight_IsbL-0850_RLatLon0.09_PT032H.grib2 2026-04-26 21:30 350K
20260426T18Z_MSC_RDPS_GeopotentialHeight_IsbL-0875_RLatLon0.09_PT032H.grib2 2026-04-26 21:30 353K
20260426T18Z_MSC_RDPS_GeopotentialHeight_IsbL-0900_RLatLon0.09_PT032H.grib2 2026-04-26 21:30 358K
20260426T18Z_MSC_RDPS_GeopotentialHeight_IsbL-0925_RLatLon0.09_PT032H.grib2 2026-04-26 21:30 361K
20260426T18Z_MSC_RDPS_GeopotentialHeight_IsbL-0950_RLatLon0.09_PT032H.grib2 2026-04-26 21:30 362K
20260426T18Z_MSC_RDPS_GeopotentialHeight_IsbL-0970_RLatLon0.09_PT032H.grib2 2026-04-26 21:30 369K
20260426T18Z_MSC_RDPS_GeopotentialHeight_IsbL-0985_RLatLon0.09_PT032H.grib2 2026-04-26 21:30 377K
20260426T18Z_MSC_RDPS_GeopotentialHeight_IsbL-1000_RLatLon0.09_PT032H.grib2 2026-04-26 21:30 388K
20260426T18Z_MSC_RDPS_GeopotentialHeight_IsbL-1015_RLatLon0.09_PT032H.grib2 2026-04-26 21:30 402K
20260426T18Z_MSC_RDPS_Humidex_Sfc_RLatLon0.09_PT032H.grib2 2026-04-26 21:30 2.4M
20260426T18Z_MSC_RDPS_IcePellets-Accum1h_Sfc_RLatLon0.09_PT032H.grib2 2026-04-26 21:30 5.5K
20260426T18Z_MSC_RDPS_IcePellets-Accum_Sfc_RLatLon0.09_PT032H.grib2 2026-04-26 21:30 19K
20260426T18Z_MSC_RDPS_KIndex_Sfc_RLatLon0.09_PT032H.grib2 2026-04-26 21:30 2.5M
20260426T18Z_MSC_RDPS_LatentHeatNetFlux_Sfc_RLatLon0.09_PT032H.grib2 2026-04-26 21:30 328K
20260426T18Z_MSC_RDPS_LiftedIndex-MU-VT_IsbL-0500_RLatLon0.09_PT032H.grib2 2026-04-26 21:30 2.4M
20260426T18Z_MSC_RDPS_NetLongwaveRadiationFlux-Accum_Sfc_RLatLon0.09_PT032H.grib2 2026-04-26 21:30 497K
20260426T18Z_MSC_RDPS_NetShortwaveRadiationFlux-Accum_Sfc_RLatLon0.09_PT032H.grib2 2026-04-26 21:30 564K
20260426T18Z_MSC_RDPS_PlanetaryBoundaryLayerHeight_Sfc_RLatLon0.09_PT032H.grib2 2026-04-26 21:30 1.1M
20260426T18Z_MSC_RDPS_Precip-Accum1h_Sfc_RLatLon0.09_PT032H.grib2 2026-04-26 21:30 1.2M
20260426T18Z_MSC_RDPS_Precip-Accum_Sfc_RLatLon0.09_PT032H.grib2 2026-04-26 21:30 1.9M
20260426T18Z_MSC_RDPS_PrecipRate_Sfc_RLatLon0.09_PT032H.grib2 2026-04-26 21:30 165K
20260426T18Z_MSC_RDPS_PrecipType-Instant_Sfc_RLatLon0.09_PT032H.grib2 2026-04-26 21:30 573K
20260426T18Z_MSC_RDPS_Pressure-Trend3h_Sfc_RLatLon0.09_PT032H.grib2 2026-04-26 21:30 1.2M
20260426T18Z_MSC_RDPS_Pressure_MSL_RLatLon0.09_PT032H.grib2 2026-04-26 21:30 291K
20260426T18Z_MSC_RDPS_Pressure_PVU-1.5_RLatLon0.09_PT032H.grib2 2026-04-26 21:30 2.5M
20260426T18Z_MSC_RDPS_Pressure_PVU-1_RLatLon0.09_PT032H.grib2 2026-04-26 21:30 2.4M
20260426T18Z_MSC_RDPS_Pressure_PVU-2_RLatLon0.09_PT032H.grib2 2026-04-26 21:30 2.4M
20260426T18Z_MSC_RDPS_Pressure_Sfc_RLatLon0.09_PT032H.grib2 2026-04-26 21:30 499K
20260426T18Z_MSC_RDPS_RadiativeTemp_Sfc_RLatLon0.09_PT032H.grib2 2026-04-26 21:30 306K
20260426T18Z_MSC_RDPS_Rain-Accum1h_Sfc_RLatLon0.09_PT032H.grib2 2026-04-26 21:30 602K
20260426T18Z_MSC_RDPS_Rain-Accum_Sfc_RLatLon0.09_PT032H.grib2 2026-04-26 21:30 1.4M
20260426T18Z_MSC_RDPS_RelativeHumidity_AGL-2m_RLatLon0.09_PT032H.grib2 2026-04-26 21:30 1.0M
20260426T18Z_MSC_RDPS_RelativeHumidity_IsbL-0010_RLatLon0.09_PT032H.grib2 2026-04-26 21:30 632K
20260426T18Z_MSC_RDPS_RelativeHumidity_IsbL-0020_RLatLon0.09_PT032H.grib2 2026-04-26 21:30 654K
20260426T18Z_MSC_RDPS_RelativeHumidity_IsbL-0030_RLatLon0.09_PT032H.grib2 2026-04-26 21:30 541K
20260426T18Z_MSC_RDPS_RelativeHumidity_IsbL-0050_RLatLon0.09_PT032H.grib2 2026-04-26 21:30 327K
20260426T18Z_MSC_RDPS_RelativeHumidity_IsbL-0100_RLatLon0.09_PT032H.grib2 2026-04-26 21:30 282K
20260426T18Z_MSC_RDPS_RelativeHumidity_IsbL-0150_RLatLon0.09_PT032H.grib2 2026-04-26 21:30 416K
20260426T18Z_MSC_RDPS_RelativeHumidity_IsbL-0175_RLatLon0.09_PT032H.grib2 2026-04-26 21:30 488K
20260426T18Z_MSC_RDPS_RelativeHumidity_IsbL-0200_RLatLon0.09_PT032H.grib2 2026-04-26 21:30 561K
20260426T18Z_MSC_RDPS_RelativeHumidity_IsbL-0225_RLatLon0.09_PT032H.grib2 2026-04-26 21:30 626K
20260426T18Z_MSC_RDPS_RelativeHumidity_IsbL-0250_RLatLon0.09_PT032H.grib2 2026-04-26 21:30 691K
20260426T18Z_MSC_RDPS_RelativeHumidity_IsbL-0275_RLatLon0.09_PT032H.grib2 2026-04-26 21:30 720K
20260426T18Z_MSC_RDPS_RelativeHumidity_IsbL-0300_RLatLon0.09_PT032H.grib2 2026-04-26 21:30 765K
20260426T18Z_MSC_RDPS_RelativeHumidity_IsbL-0350_RLatLon0.09_PT032H.grib2 2026-04-26 21:30 782K
20260426T18Z_MSC_RDPS_RelativeHumidity_IsbL-0400_RLatLon0.09_PT032H.grib2 2026-04-26 21:30 799K
20260426T18Z_MSC_RDPS_RelativeHumidity_IsbL-0450_RLatLon0.09_PT032H.grib2 2026-04-26 21:30 812K
20260426T18Z_MSC_RDPS_RelativeHumidity_IsbL-0500_RLatLon0.09_PT032H.grib2 2026-04-26 21:30 821K
20260426T18Z_MSC_RDPS_RelativeHumidity_IsbL-0550_RLatLon0.09_PT032H.grib2 2026-04-26 21:30 847K
20260426T18Z_MSC_RDPS_RelativeHumidity_IsbL-0600_RLatLon0.09_PT032H.grib2 2026-04-26 21:30 863K
20260426T18Z_MSC_RDPS_RelativeHumidity_IsbL-0650_RLatLon0.09_PT032H.grib2 2026-04-26 21:30 865K
20260426T18Z_MSC_RDPS_RelativeHumidity_IsbL-0700_RLatLon0.09_PT032H.grib2 2026-04-26 21:30 901K
20260426T18Z_MSC_RDPS_RelativeHumidity_IsbL-0750_RLatLon0.09_PT032H.grib2 2026-04-26 21:30 946K
20260426T18Z_MSC_RDPS_RelativeHumidity_IsbL-0800_RLatLon0.09_PT032H.grib2 2026-04-26 21:30 1.0M
20260426T18Z_MSC_RDPS_RelativeHumidity_IsbL-0850_RLatLon0.09_PT032H.grib2 2026-04-26 21:30 1.0M
20260426T18Z_MSC_RDPS_RelativeHumidity_IsbL-0875_RLatLon0.09_PT032H.grib2 2026-04-26 21:30 1.1M
20260426T18Z_MSC_RDPS_RelativeHumidity_IsbL-0900_RLatLon0.09_PT032H.grib2 2026-04-26 21:30 1.1M
20260426T18Z_MSC_RDPS_RelativeHumidity_IsbL-0925_RLatLon0.09_PT032H.grib2 2026-04-26 21:30 1.1M
20260426T18Z_MSC_RDPS_RelativeHumidity_IsbL-0950_RLatLon0.09_PT032H.grib2 2026-04-26 21:30 1.1M
20260426T18Z_MSC_RDPS_RelativeHumidity_IsbL-0970_RLatLon0.09_PT032H.grib2 2026-04-26 21:30 1.0M
20260426T18Z_MSC_RDPS_RelativeHumidity_IsbL-0985_RLatLon0.09_PT032H.grib2 2026-04-26 21:30 1.0M
20260426T18Z_MSC_RDPS_RelativeHumidity_IsbL-1000_RLatLon0.09_PT032H.grib2 2026-04-26 21:30 1.0M
20260426T18Z_MSC_RDPS_RelativeHumidity_IsbL-1015_RLatLon0.09_PT032H.grib2 2026-04-26 21:30 1.0M
20260426T18Z_MSC_RDPS_Runoff-Accum_Sfc_RLatLon0.09_PT032H.grib2 2026-04-26 21:30 56K
20260426T18Z_MSC_RDPS_SWEATIndex_Sfc_RLatLon0.09_PT032H.grib2 2026-04-26 21:30 2.4M
20260426T18Z_MSC_RDPS_SeeingIndex_EAtm_RLatLon0.09_PT032H.grib2 2026-04-26 21:30 1.0M
20260426T18Z_MSC_RDPS_SensibleHeatNetFlux_Sfc_RLatLon0.09_PT032H.grib2 2026-04-26 21:30 297K
20260426T18Z_MSC_RDPS_ShowalterIndex_IsbL-0500_RLatLon0.09_PT032H.grib2 2026-04-26 21:30 2.5M
20260426T18Z_MSC_RDPS_SkyTransparencyIndex_EAtm_RLatLon0.09_PT032H.grib2 2026-04-26 21:30 701K
20260426T18Z_MSC_RDPS_Snow-Accum1h_Sfc_RLatLon0.09_PT032H.grib2 2026-04-26 21:30 488K
20260426T18Z_MSC_RDPS_Snow-Accum_Sfc_RLatLon0.09_PT032H.grib2 2026-04-26 21:30 747K
20260426T18Z_MSC_RDPS_SnowDensity_Sfc_RLatLon0.09_PT032H.grib2 2026-04-26 21:30 183K
20260426T18Z_MSC_RDPS_SnowDepth_Sfc_RLatLon0.09_PT032H.grib2 2026-04-26 21:30 716K
20260426T18Z_MSC_RDPS_SoilTemp_DBS-0to10cm_RLatLon0.09_PT032H.grib2 2026-04-26 21:30 233K
20260426T18Z_MSC_RDPS_SoilTemp_Sfc_RLatLon0.09_PT032H.grib2 2026-04-26 21:30 279K
20260426T18Z_MSC_RDPS_SoilVolumetricIceContent_Sfc_RLatLon0.09_PT032H.grib2 2026-04-26 21:30 168K
20260426T18Z_MSC_RDPS_SoilVolumetricWaterContent_DBS-0to10cm_RLatLon0.09_PT032H.grib2 2026-04-26 21:30 260K
20260426T18Z_MSC_RDPS_SoilVolumetricWaterContent_DBS-0to1cm_RLatLon0.09_PT032H.grib2 2026-04-26 21:30 340K
20260426T18Z_MSC_RDPS_SpecificHumidity_AGL-120m_RLatLon0.09_PT032H.grib2 2026-04-26 21:30 480K
20260426T18Z_MSC_RDPS_SpecificHumidity_AGL-2m_RLatLon0.09_PT032H.grib2 2026-04-26 21:30 648K
20260426T18Z_MSC_RDPS_SpecificHumidity_AGL-40m_RLatLon0.09_PT032H.grib2 2026-04-26 21:30 486K
20260426T18Z_MSC_RDPS_SpecificHumidity_AGL-80m_RLatLon0.09_PT032H.grib2 2026-04-26 21:30 481K
20260426T18Z_MSC_RDPS_SpecificHumidity_IsbL-0001_RLatLon0.09_PT032H.grib2 2026-04-26 21:30 339K
20260426T18Z_MSC_RDPS_SpecificHumidity_IsbL-0005_RLatLon0.09_PT032H.grib2 2026-04-26 21:30 359K
20260426T18Z_MSC_RDPS_SpecificHumidity_IsbL-0010_RLatLon0.09_PT032H.grib2 2026-04-26 21:30 400K
20260426T18Z_MSC_RDPS_SpecificHumidity_IsbL-0020_RLatLon0.09_PT032H.grib2 2026-04-26 21:30 389K
20260426T18Z_MSC_RDPS_SpecificHumidity_IsbL-0030_RLatLon0.09_PT032H.grib2 2026-04-26 21:30 448K
20260426T18Z_MSC_RDPS_SpecificHumidity_IsbL-0050_RLatLon0.09_PT032H.grib2 2026-04-26 21:30 497K
20260426T18Z_MSC_RDPS_SpecificHumidity_IsbL-0100_RLatLon0.09_PT032H.grib2 2026-04-26 21:30 447K
20260426T18Z_MSC_RDPS_SpecificHumidity_IsbL-0150_RLatLon0.09_PT032H.grib2 2026-04-26 21:30 457K
20260426T18Z_MSC_RDPS_SpecificHumidity_IsbL-0175_RLatLon0.09_PT032H.grib2 2026-04-26 21:30 470K
20260426T18Z_MSC_RDPS_SpecificHumidity_IsbL-0200_RLatLon0.09_PT032H.grib2 2026-04-26 21:30 465K
20260426T18Z_MSC_RDPS_SpecificHumidity_IsbL-0225_RLatLon0.09_PT032H.grib2 2026-04-26 21:30 463K
20260426T18Z_MSC_RDPS_SpecificHumidity_IsbL-0250_RLatLon0.09_PT032H.grib2 2026-04-26 21:30 562K
20260426T18Z_MSC_RDPS_SpecificHumidity_IsbL-0275_RLatLon0.09_PT032H.grib2 2026-04-26 21:30 477K
20260426T18Z_MSC_RDPS_SpecificHumidity_IsbL-0300_RLatLon0.09_PT032H.grib2 2026-04-26 21:30 450K
20260426T18Z_MSC_RDPS_SpecificHumidity_IsbL-0350_RLatLon0.09_PT032H.grib2 2026-04-26 21:30 537K
20260426T18Z_MSC_RDPS_SpecificHumidity_IsbL-0400_RLatLon0.09_PT032H.grib2 2026-04-26 21:30 521K
20260426T18Z_MSC_RDPS_SpecificHumidity_IsbL-0450_RLatLon0.09_PT032H.grib2 2026-04-26 21:30 580K
20260426T18Z_MSC_RDPS_SpecificHumidity_IsbL-0500_RLatLon0.09_PT032H.grib2 2026-04-26 21:30 520K
20260426T18Z_MSC_RDPS_SpecificHumidity_IsbL-0550_RLatLon0.09_PT032H.grib2 2026-04-26 21:30 575K
20260426T18Z_MSC_RDPS_SpecificHumidity_IsbL-0600_RLatLon0.09_PT032H.grib2 2026-04-26 21:30 641K
20260426T18Z_MSC_RDPS_SpecificHumidity_IsbL-0650_RLatLon0.09_PT032H.grib2 2026-04-26 21:30 556K
20260426T18Z_MSC_RDPS_SpecificHumidity_IsbL-0700_RLatLon0.09_PT032H.grib2 2026-04-26 21:30 602K
20260426T18Z_MSC_RDPS_SpecificHumidity_IsbL-0750_RLatLon0.09_PT032H.grib2 2026-04-26 21:30 660K
20260426T18Z_MSC_RDPS_SpecificHumidity_IsbL-0800_RLatLon0.09_PT032H.grib2 2026-04-26 21:30 736K
20260426T18Z_MSC_RDPS_SpecificHumidity_IsbL-0850_RLatLon0.09_PT032H.grib2 2026-04-26 21:30 802K
20260426T18Z_MSC_RDPS_SpecificHumidity_IsbL-0875_RLatLon0.09_PT032H.grib2 2026-04-26 21:30 827K
20260426T18Z_MSC_RDPS_SpecificHumidity_IsbL-0900_RLatLon0.09_PT032H.grib2 2026-04-26 21:30 839K
20260426T18Z_MSC_RDPS_SpecificHumidity_IsbL-0925_RLatLon0.09_PT032H.grib2 2026-04-26 21:30 840K
20260426T18Z_MSC_RDPS_SpecificHumidity_IsbL-0950_RLatLon0.09_PT032H.grib2 2026-04-26 21:30 696K
20260426T18Z_MSC_RDPS_SpecificHumidity_IsbL-0970_RLatLon0.09_PT032H.grib2 2026-04-26 21:30 684K
20260426T18Z_MSC_RDPS_SpecificHumidity_IsbL-0985_RLatLon0.09_PT032H.grib2 2026-04-26 21:30 675K
20260426T18Z_MSC_RDPS_SpecificHumidity_IsbL-1000_RLatLon0.09_PT032H.grib2 2026-04-26 21:30 669K
20260426T18Z_MSC_RDPS_SpecificHumidity_IsbL-1015_RLatLon0.09_PT032H.grib2 2026-04-26 21:30 662K
20260426T18Z_MSC_RDPS_SpecificHumidity_Sfc_RLatLon0.09_PT032H.grib2 2026-04-26 21:30 317K
20260426T18Z_MSC_RDPS_StormRelativeHelicity_EtaL-10000_RLatLon0.09_PT032H.grib2 2026-04-26 21:30 1.1M
20260426T18Z_MSC_RDPS_StormSeverityIndex_EtaL-10000_RLatLon0.09_PT032H.grib2 2026-04-26 21:30 1.2M
20260426T18Z_MSC_RDPS_Thickness_IsbL-0850to0700_RLatLon0.09_PT032H.grib2 2026-04-26 21:30 174K
20260426T18Z_MSC_RDPS_Thickness_IsbL-1000to0500_RLatLon0.09_PT032H.grib2 2026-04-26 21:30 198K
20260426T18Z_MSC_RDPS_Thickness_IsbL-1000to0850_RLatLon0.09_PT032H.grib2 2026-04-26 21:30 182K
20260426T18Z_MSC_RDPS_TotalCloudCover_Sfc_RLatLon0.09_PT032H.grib2 2026-04-26 21:30 649K
20260426T18Z_MSC_RDPS_TotalTotalsIndex_Sfc_RLatLon0.09_PT032H.grib2 2026-04-26 21:30 2.4M
20260426T18Z_MSC_RDPS_UVIndex-ClearSky_Sfc_RLatLon0.09_PT032H.grib2 2026-04-26 21:30 114K
20260426T18Z_MSC_RDPS_UVIndex_Sfc_RLatLon0.09_PT032H.grib2 2026-04-26 21:30 311K
20260426T18Z_MSC_RDPS_UpwardLongwaveRadiationFlux_NTAtm_RLatLon0.09_PT032H.grib2 2026-04-26 21:30 493K
20260426T18Z_MSC_RDPS_UpwardShortwaveRadiationFlux_NTAtm_RLatLon0.09_PT032H.grib2 2026-04-26 21:30 239K
20260426T18Z_MSC_RDPS_VerticalVelocity_IsbL-0250_RLatLon0.09_PT032H.grib2 2026-04-26 21:30 575K
20260426T18Z_MSC_RDPS_VerticalVelocity_IsbL-0500_RLatLon0.09_PT032H.grib2 2026-04-26 21:30 544K
20260426T18Z_MSC_RDPS_VerticalVelocity_IsbL-0700_RLatLon0.09_PT032H.grib2 2026-04-26 21:30 594K
20260426T18Z_MSC_RDPS_VerticalVelocity_IsbL-0850_RLatLon0.09_PT032H.grib2 2026-04-26 21:30 689K
20260426T18Z_MSC_RDPS_VerticalWindShear_EtaL-6500_RLatLon0.09_PT032H.grib2 2026-04-26 21:30 1.2M
20260426T18Z_MSC_RDPS_WindChill_Sfc_RLatLon0.09_PT032H.grib2 2026-04-26 21:30 1.1M
20260426T18Z_MSC_RDPS_WindDir_AGL-10m_RLatLon0.09_PT032H.grib2 2026-04-26 21:30 952K
20260426T18Z_MSC_RDPS_WindDir_AGL-120m_RLatLon0.09_PT032H.grib2 2026-04-26 21:30 593K
20260426T18Z_MSC_RDPS_WindDir_AGL-40m_RLatLon0.09_PT032H.grib2 2026-04-26 21:30 623K
20260426T18Z_MSC_RDPS_WindDir_AGL-80m_RLatLon0.09_PT032H.grib2 2026-04-26 21:30 605K
20260426T18Z_MSC_RDPS_WindDir_IsbL-0001_RLatLon0.09_PT032H.grib2 2026-04-26 21:30 296K
20260426T18Z_MSC_RDPS_WindDir_IsbL-0005_RLatLon0.09_PT032H.grib2 2026-04-26 21:30 366K
20260426T18Z_MSC_RDPS_WindDir_IsbL-0010_RLatLon0.09_PT032H.grib2 2026-04-26 21:30 411K
20260426T18Z_MSC_RDPS_WindDir_IsbL-0020_RLatLon0.09_PT032H.grib2 2026-04-26 21:30 418K
20260426T18Z_MSC_RDPS_WindDir_IsbL-0030_RLatLon0.09_PT032H.grib2 2026-04-26 21:30 427K
20260426T18Z_MSC_RDPS_WindDir_IsbL-0050_RLatLon0.09_PT032H.grib2 2026-04-26 21:30 434K
20260426T18Z_MSC_RDPS_WindDir_IsbL-0100_RLatLon0.09_PT032H.grib2 2026-04-26 21:30 411K
20260426T18Z_MSC_RDPS_WindDir_IsbL-0150_RLatLon0.09_PT032H.grib2 2026-04-26 21:30 414K
20260426T18Z_MSC_RDPS_WindDir_IsbL-0175_RLatLon0.09_PT032H.grib2 2026-04-26 21:30 436K
20260426T18Z_MSC_RDPS_WindDir_IsbL-0200_RLatLon0.09_PT032H.grib2 2026-04-26 21:30 448K
20260426T18Z_MSC_RDPS_WindDir_IsbL-0225_RLatLon0.09_PT032H.grib2 2026-04-26 21:30 447K
20260426T18Z_MSC_RDPS_WindDir_IsbL-0250_RLatLon0.09_PT032H.grib2 2026-04-26 21:30 445K
20260426T18Z_MSC_RDPS_WindDir_IsbL-0275_RLatLon0.09_PT032H.grib2 2026-04-26 21:30 465K
20260426T18Z_MSC_RDPS_WindDir_IsbL-0300_RLatLon0.09_PT032H.grib2 2026-04-26 21:30 465K
20260426T18Z_MSC_RDPS_WindDir_IsbL-0350_RLatLon0.09_PT032H.grib2 2026-04-26 21:30 492K
20260426T18Z_MSC_RDPS_WindDir_IsbL-0400_RLatLon0.09_PT032H.grib2 2026-04-26 21:30 509K
20260426T18Z_MSC_RDPS_WindDir_IsbL-0450_RLatLon0.09_PT032H.grib2 2026-04-26 21:30 526K
20260426T18Z_MSC_RDPS_WindDir_IsbL-0500_RLatLon0.09_PT032H.grib2 2026-04-26 21:30 542K
20260426T18Z_MSC_RDPS_WindDir_IsbL-0550_RLatLon0.09_PT032H.grib2 2026-04-26 21:30 555K
20260426T18Z_MSC_RDPS_WindDir_IsbL-0600_RLatLon0.09_PT032H.grib2 2026-04-26 21:30 582K
20260426T18Z_MSC_RDPS_WindDir_IsbL-0650_RLatLon0.09_PT032H.grib2 2026-04-26 21:30 623K
20260426T18Z_MSC_RDPS_WindDir_IsbL-0700_RLatLon0.09_PT032H.grib2 2026-04-26 21:30 667K
20260426T18Z_MSC_RDPS_WindDir_IsbL-0750_RLatLon0.09_PT032H.grib2 2026-04-26 21:30 716K
20260426T18Z_MSC_RDPS_WindDir_IsbL-0800_RLatLon0.09_PT032H.grib2 2026-04-26 21:30 786K
20260426T18Z_MSC_RDPS_WindDir_IsbL-0850_RLatLon0.09_PT032H.grib2 2026-04-26 21:30 856K
20260426T18Z_MSC_RDPS_WindDir_IsbL-0875_RLatLon0.09_PT032H.grib2 2026-04-26 21:30 880K
20260426T18Z_MSC_RDPS_WindDir_IsbL-0900_RLatLon0.09_PT032H.grib2 2026-04-26 21:30 895K
20260426T18Z_MSC_RDPS_WindDir_IsbL-0925_RLatLon0.09_PT032H.grib2 2026-04-26 21:30 899K
20260426T18Z_MSC_RDPS_WindDir_IsbL-0950_RLatLon0.09_PT032H.grib2 2026-04-26 21:30 897K
20260426T18Z_MSC_RDPS_WindDir_IsbL-0970_RLatLon0.09_PT032H.grib2 2026-04-26 21:30 901K
20260426T18Z_MSC_RDPS_WindDir_IsbL-0985_RLatLon0.09_PT032H.grib2 2026-04-26 21:30 910K
20260426T18Z_MSC_RDPS_WindDir_IsbL-1000_RLatLon0.09_PT032H.grib2 2026-04-26 21:30 926K
20260426T18Z_MSC_RDPS_WindDir_IsbL-1015_RLatLon0.09_PT032H.grib2 2026-04-26 21:30 945K
20260426T18Z_MSC_RDPS_WindGust-Max_AGL-10m_RLatLon0.09_PT032H.grib2 2026-04-26 21:30 953K
20260426T18Z_MSC_RDPS_WindGust-Min_AGL-10m_RLatLon0.09_PT032H.grib2 2026-04-26 21:30 926K
20260426T18Z_MSC_RDPS_WindGust_AGL-10m_RLatLon0.09_PT032H.grib2 2026-04-26 21:30 944K
20260426T18Z_MSC_RDPS_WindSpeed_AGL-10m_RLatLon0.09_PT032H.grib2 2026-04-26 21:30 838K
20260426T18Z_MSC_RDPS_WindSpeed_AGL-120m_RLatLon0.09_PT032H.grib2 2026-04-26 21:30 545K
20260426T18Z_MSC_RDPS_WindSpeed_AGL-40m_RLatLon0.09_PT032H.grib2 2026-04-26 21:30 551K
20260426T18Z_MSC_RDPS_WindSpeed_AGL-80m_RLatLon0.09_PT032H.grib2 2026-04-26 21:30 548K
20260426T18Z_MSC_RDPS_WindSpeed_IsbL-0001_RLatLon0.09_PT032H.grib2 2026-04-26 21:30 251K
20260426T18Z_MSC_RDPS_WindSpeed_IsbL-0005_RLatLon0.09_PT032H.grib2 2026-04-26 21:30 301K
20260426T18Z_MSC_RDPS_WindSpeed_IsbL-0010_RLatLon0.09_PT032H.grib2 2026-04-26 21:30 315K
20260426T18Z_MSC_RDPS_WindSpeed_IsbL-0020_RLatLon0.09_PT032H.grib2 2026-04-26 21:30 331K
20260426T18Z_MSC_RDPS_WindSpeed_IsbL-0030_RLatLon0.09_PT032H.grib2 2026-04-26 21:30 324K
20260426T18Z_MSC_RDPS_WindSpeed_IsbL-0050_RLatLon0.09_PT032H.grib2 2026-04-26 21:30 359K
20260426T18Z_MSC_RDPS_WindSpeed_IsbL-0100_RLatLon0.09_PT032H.grib2 2026-04-26 21:30 445K
20260426T18Z_MSC_RDPS_WindSpeed_IsbL-0150_RLatLon0.09_PT032H.grib2 2026-04-26 21:30 384K
20260426T18Z_MSC_RDPS_WindSpeed_IsbL-0175_RLatLon0.09_PT032H.grib2 2026-04-26 21:30 413K
20260426T18Z_MSC_RDPS_WindSpeed_IsbL-0200_RLatLon0.09_PT032H.grib2 2026-04-26 21:30 448K
20260426T18Z_MSC_RDPS_WindSpeed_IsbL-0225_RLatLon0.09_PT032H.grib2 2026-04-26 21:30 452K
20260426T18Z_MSC_RDPS_WindSpeed_IsbL-0250_RLatLon0.09_PT032H.grib2 2026-04-26 21:30 455K
20260426T18Z_MSC_RDPS_WindSpeed_IsbL-0275_RLatLon0.09_PT032H.grib2 2026-04-26 21:30 471K
20260426T18Z_MSC_RDPS_WindSpeed_IsbL-0300_RLatLon0.09_PT032H.grib2 2026-04-26 21:30 469K
20260426T18Z_MSC_RDPS_WindSpeed_IsbL-0350_RLatLon0.09_PT032H.grib2 2026-04-26 21:30 480K
20260426T18Z_MSC_RDPS_WindSpeed_IsbL-0400_RLatLon0.09_PT032H.grib2 2026-04-26 21:30 465K
20260426T18Z_MSC_RDPS_WindSpeed_IsbL-0450_RLatLon0.09_PT032H.grib2 2026-04-26 21:30 463K
20260426T18Z_MSC_RDPS_WindSpeed_IsbL-0500_RLatLon0.09_PT032H.grib2 2026-04-26 21:30 462K
20260426T18Z_MSC_RDPS_WindSpeed_IsbL-0550_RLatLon0.09_PT032H.grib2 2026-04-26 21:30 580K
20260426T18Z_MSC_RDPS_WindSpeed_IsbL-0600_RLatLon0.09_PT032H.grib2 2026-04-26 21:30 590K
20260426T18Z_MSC_RDPS_WindSpeed_IsbL-0650_RLatLon0.09_PT032H.grib2 2026-04-26 21:30 611K
20260426T18Z_MSC_RDPS_WindSpeed_IsbL-0700_RLatLon0.09_PT032H.grib2 2026-04-26 21:30 677K
20260426T18Z_MSC_RDPS_WindSpeed_IsbL-0750_RLatLon0.09_PT032H.grib2 2026-04-26 21:30 705K
20260426T18Z_MSC_RDPS_WindSpeed_IsbL-0800_RLatLon0.09_PT032H.grib2 2026-04-26 21:30 751K
20260426T18Z_MSC_RDPS_WindSpeed_IsbL-0850_RLatLon0.09_PT032H.grib2 2026-04-26 21:30 760K
20260426T18Z_MSC_RDPS_WindSpeed_IsbL-0875_RLatLon0.09_PT032H.grib2 2026-04-26 21:30 782K
20260426T18Z_MSC_RDPS_WindSpeed_IsbL-0900_RLatLon0.09_PT032H.grib2 2026-04-26 21:30 798K
20260426T18Z_MSC_RDPS_WindSpeed_IsbL-0925_RLatLon0.09_PT032H.grib2 2026-04-26 21:30 809K
20260426T18Z_MSC_RDPS_WindSpeed_IsbL-0950_RLatLon0.09_PT032H.grib2 2026-04-26 21:30 856K
20260426T18Z_MSC_RDPS_WindSpeed_IsbL-0970_RLatLon0.09_PT032H.grib2 2026-04-26 21:30 859K
20260426T18Z_MSC_RDPS_WindSpeed_IsbL-0985_RLatLon0.09_PT032H.grib2 2026-04-26 21:30 857K
20260426T18Z_MSC_RDPS_WindSpeed_IsbL-1000_RLatLon0.09_PT032H.grib2 2026-04-26 21:30 847K
20260426T18Z_MSC_RDPS_WindSpeed_IsbL-1015_RLatLon0.09_PT032H.grib2 2026-04-26 21:30 839K
20260426T18Z_MSC_RDPS_WindU_AGL-10m_RLatLon0.09_PT032H.grib2 2026-04-26 21:30 431K
20260426T18Z_MSC_RDPS_WindU_AGL-120m_RLatLon0.09_PT032H.grib2 2026-04-26 21:30 415K
20260426T18Z_MSC_RDPS_WindU_AGL-40m_RLatLon0.09_PT032H.grib2 2026-04-26 21:30 537K
20260426T18Z_MSC_RDPS_WindU_AGL-80m_RLatLon0.09_PT032H.grib2 2026-04-26 21:30 418K
20260426T18Z_MSC_RDPS_WindU_IsbL-0001_RLatLon0.09_PT032H.grib2 2026-04-26 21:30 293K
20260426T18Z_MSC_RDPS_WindU_IsbL-0005_RLatLon0.09_PT032H.grib2 2026-04-26 21:30 336K
20260426T18Z_MSC_RDPS_WindU_IsbL-0010_RLatLon0.09_PT032H.grib2 2026-04-26 21:30 304K
20260426T18Z_MSC_RDPS_WindU_IsbL-0020_RLatLon0.09_PT032H.grib2 2026-04-26 21:30 359K
20260426T18Z_MSC_RDPS_WindU_IsbL-0030_RLatLon0.09_PT032H.grib2 2026-04-26 21:30 354K
20260426T18Z_MSC_RDPS_WindU_IsbL-0050_RLatLon0.09_PT032H.grib2 2026-04-26 21:30 385K
20260426T18Z_MSC_RDPS_WindU_IsbL-0100_RLatLon0.09_PT032H.grib2 2026-04-26 21:30 342K
20260426T18Z_MSC_RDPS_WindU_IsbL-0150_RLatLon0.09_PT032H.grib2 2026-04-26 21:30 402K
20260426T18Z_MSC_RDPS_WindU_IsbL-0175_RLatLon0.09_PT032H.grib2 2026-04-26 21:30 427K
20260426T18Z_MSC_RDPS_WindU_IsbL-0200_RLatLon0.09_PT032H.grib2 2026-04-26 21:30 441K
20260426T18Z_MSC_RDPS_WindU_IsbL-0225_RLatLon0.09_PT032H.grib2 2026-04-26 21:30 345K
20260426T18Z_MSC_RDPS_WindU_IsbL-0250_RLatLon0.09_PT032H.grib2 2026-04-26 21:30 347K
20260426T18Z_MSC_RDPS_WindU_IsbL-0275_RLatLon0.09_PT032H.grib2 2026-04-26 21:30 359K
20260426T18Z_MSC_RDPS_WindU_IsbL-0300_RLatLon0.09_PT032H.grib2 2026-04-26 21:30 355K
20260426T18Z_MSC_RDPS_WindU_IsbL-0350_RLatLon0.09_PT032H.grib2 2026-04-26 21:30 364K
20260426T18Z_MSC_RDPS_WindU_IsbL-0400_RLatLon0.09_PT032H.grib2 2026-04-26 21:30 366K
20260426T18Z_MSC_RDPS_WindU_IsbL-0450_RLatLon0.09_PT032H.grib2 2026-04-26 21:30 469K
20260426T18Z_MSC_RDPS_WindU_IsbL-0500_RLatLon0.09_PT032H.grib2 2026-04-26 21:30 469K
20260426T18Z_MSC_RDPS_WindU_IsbL-0550_RLatLon0.09_PT032H.grib2 2026-04-26 21:30 471K
20260426T18Z_MSC_RDPS_WindU_IsbL-0600_RLatLon0.09_PT032H.grib2 2026-04-26 21:30 480K
20260426T18Z_MSC_RDPS_WindU_IsbL-0650_RLatLon0.09_PT032H.grib2 2026-04-26 21:30 497K
20260426T18Z_MSC_RDPS_WindU_IsbL-0700_RLatLon0.09_PT032H.grib2 2026-04-26 21:30 516K
20260426T18Z_MSC_RDPS_WindU_IsbL-0750_RLatLon0.09_PT032H.grib2 2026-04-26 21:30 526K
20260426T18Z_MSC_RDPS_WindU_IsbL-0800_RLatLon0.09_PT032H.grib2 2026-04-26 21:30 567K
20260426T18Z_MSC_RDPS_WindU_IsbL-0850_RLatLon0.09_PT032H.grib2 2026-04-26 21:30 614K
20260426T18Z_MSC_RDPS_WindU_IsbL-0875_RLatLon0.09_PT032H.grib2 2026-04-26 21:30 633K
20260426T18Z_MSC_RDPS_WindU_IsbL-0900_RLatLon0.09_PT032H.grib2 2026-04-26 21:30 646K
20260426T18Z_MSC_RDPS_WindU_IsbL-0925_RLatLon0.09_PT032H.grib2 2026-04-26 21:30 653K
20260426T18Z_MSC_RDPS_WindU_IsbL-0950_RLatLon0.09_PT032H.grib2 2026-04-26 21:30 651K
20260426T18Z_MSC_RDPS_WindU_IsbL-0970_RLatLon0.09_PT032H.grib2 2026-04-26 21:30 650K
20260426T18Z_MSC_RDPS_WindU_IsbL-0985_RLatLon0.09_PT032H.grib2 2026-04-26 21:30 648K
20260426T18Z_MSC_RDPS_WindU_IsbL-1000_RLatLon0.09_PT032H.grib2 2026-04-26 21:30 783K
20260426T18Z_MSC_RDPS_WindU_IsbL-1015_RLatLon0.09_PT032H.grib2 2026-04-26 21:30 778K
20260426T18Z_MSC_RDPS_WindV_AGL-10m_RLatLon0.09_PT032H.grib2 2026-04-26 21:30 428K
20260426T18Z_MSC_RDPS_WindV_AGL-120m_RLatLon0.09_PT032H.grib2 2026-04-26 21:30 413K
20260426T18Z_MSC_RDPS_WindV_AGL-40m_RLatLon0.09_PT032H.grib2 2026-04-26 21:30 533K
20260426T18Z_MSC_RDPS_WindV_AGL-80m_RLatLon0.09_PT032H.grib2 2026-04-26 21:30 416K
20260426T18Z_MSC_RDPS_WindV_IsbL-0001_RLatLon0.09_PT032H.grib2 2026-04-26 21:30 291K
20260426T18Z_MSC_RDPS_WindV_IsbL-0005_RLatLon0.09_PT032H.grib2 2026-04-26 21:30 291K
20260426T18Z_MSC_RDPS_WindV_IsbL-0010_RLatLon0.09_PT032H.grib2 2026-04-26 21:30 304K
20260426T18Z_MSC_RDPS_WindV_IsbL-0020_RLatLon0.09_PT032H.grib2 2026-04-26 21:30 322K
20260426T18Z_MSC_RDPS_WindV_IsbL-0030_RLatLon0.09_PT032H.grib2 2026-04-26 21:30 319K
20260426T18Z_MSC_RDPS_WindV_IsbL-0050_RLatLon0.09_PT032H.grib2 2026-04-26 21:30 351K
20260426T18Z_MSC_RDPS_WindV_IsbL-0100_RLatLon0.09_PT032H.grib2 2026-04-26 21:30 338K
20260426T18Z_MSC_RDPS_WindV_IsbL-0150_RLatLon0.09_PT032H.grib2 2026-04-26 21:30 399K
20260426T18Z_MSC_RDPS_WindV_IsbL-0175_RLatLon0.09_PT032H.grib2 2026-04-26 21:30 427K
20260426T18Z_MSC_RDPS_WindV_IsbL-0200_RLatLon0.09_PT032H.grib2 2026-04-26 21:30 343K
20260426T18Z_MSC_RDPS_WindV_IsbL-0225_RLatLon0.09_PT032H.grib2 2026-04-26 21:30 344K
20260426T18Z_MSC_RDPS_WindV_IsbL-0250_RLatLon0.09_PT032H.grib2 2026-04-26 21:30 343K
20260426T18Z_MSC_RDPS_WindV_IsbL-0275_RLatLon0.09_PT032H.grib2 2026-04-26 21:30 382K
20260426T18Z_MSC_RDPS_WindV_IsbL-0300_RLatLon0.09_PT032H.grib2 2026-04-26 21:30 354K
20260426T18Z_MSC_RDPS_WindV_IsbL-0350_RLatLon0.09_PT032H.grib2 2026-04-26 21:30 362K
20260426T18Z_MSC_RDPS_WindV_IsbL-0400_RLatLon0.09_PT032H.grib2 2026-04-26 21:30 364K
20260426T18Z_MSC_RDPS_WindV_IsbL-0450_RLatLon0.09_PT032H.grib2 2026-04-26 21:30 362K
20260426T18Z_MSC_RDPS_WindV_IsbL-0500_RLatLon0.09_PT032H.grib2 2026-04-26 21:30 465K
20260426T18Z_MSC_RDPS_WindV_IsbL-0550_RLatLon0.09_PT032H.grib2 2026-04-26 21:30 465K
20260426T18Z_MSC_RDPS_WindV_IsbL-0600_RLatLon0.09_PT032H.grib2 2026-04-26 21:30 476K
20260426T18Z_MSC_RDPS_WindV_IsbL-0650_RLatLon0.09_PT032H.grib2 2026-04-26 21:30 493K
20260426T18Z_MSC_RDPS_WindV_IsbL-0700_RLatLon0.09_PT032H.grib2 2026-04-26 21:30 513K
20260426T18Z_MSC_RDPS_WindV_IsbL-0750_RLatLon0.09_PT032H.grib2 2026-04-26 21:30 522K
20260426T18Z_MSC_RDPS_WindV_IsbL-0800_RLatLon0.09_PT032H.grib2 2026-04-26 21:30 562K
20260426T18Z_MSC_RDPS_WindV_IsbL-0850_RLatLon0.09_PT032H.grib2 2026-04-26 21:30 610K
20260426T18Z_MSC_RDPS_WindV_IsbL-0875_RLatLon0.09_PT032H.grib2 2026-04-26 21:30 630K
20260426T18Z_MSC_RDPS_WindV_IsbL-0900_RLatLon0.09_PT032H.grib2 2026-04-26 21:30 643K
20260426T18Z_MSC_RDPS_WindV_IsbL-0925_RLatLon0.09_PT032H.grib2 2026-04-26 21:30 650K
20260426T18Z_MSC_RDPS_WindV_IsbL-0950_RLatLon0.09_PT032H.grib2 2026-04-26 21:30 649K
20260426T18Z_MSC_RDPS_WindV_IsbL-0970_RLatLon0.09_PT032H.grib2 2026-04-26 21:30 648K
20260426T18Z_MSC_RDPS_WindV_IsbL-0985_RLatLon0.09_PT032H.grib2 2026-04-26 21:30 645K
20260426T18Z_MSC_RDPS_WindV_IsbL-1000_RLatLon0.09_PT032H.grib2 2026-04-26 21:30 780K
20260426T18Z_MSC_RDPS_WindV_IsbL-1015_RLatLon0.09_PT032H.grib2 2026-04-26 21:30 773K